FIN3PX EFHK-EFIV

Flight info

Callsign FIN3PX
Flight time 1h 27m
Altitude 38000
Route TEVRU Y75 USUPO DCT RENVI/N0462F390 DCT SOTIT
Aircraft E190/M-SDE3GILORVW/S

Departure

Time 2026-04-26 08:33
Airport Helsinki Vantaa Airport (EFHK)

Arrival

Time 2026-04-26 10:00
Airport Ivalo Airport (EFIV)
Time Latitude Longitude Altitude Speed Heading
2026-04-26 08:03 60.31747 24.97119 165 ft 0 kts 243°
2026-04-26 08:21 60.31753 24.97143 165 ft 4 kts 243°
2026-04-26 08:21 60.31765 24.97191 165 ft 4 kts 237°
2026-04-26 08:21 60.31781 24.97229 165 ft 4 kts 191°
2026-04-26 08:21 60.31799 24.97221 165 ft 4 kts 153°
2026-04-26 08:22 60.31804 24.97216 165 ft 3 kts 153°
2026-04-26 08:26 60.31803 24.97217 165 ft 1 kts 153°
2026-04-26 08:27 60.31785 24.97235 137 ft 6 kts 153°
2026-04-26 08:27 60.31726 24.97296 165 ft 13 kts 153°
2026-04-26 08:27 60.31651 24.97375 164 ft 4 kts 151°
2026-04-26 08:27 60.31630 24.97450 162 ft 10 kts 87°
2026-04-26 08:28 60.31596 24.97584 155 ft 16 kts 153°
2026-04-26 08:28 60.31479 24.97702 155 ft 21 kts 153°
2026-04-26 08:28 60.31338 24.97847 156 ft 24 kts 153°
2026-04-26 08:28 60.31186 24.98004 158 ft 25 kts 153°
2026-04-26 08:29 60.31027 24.98164 157 ft 26 kts 155°
2026-04-26 08:29 60.30856 24.98312 157 ft 27 kts 156°
2026-04-26 08:29 60.30716 24.98434 157 ft 20 kts 157°
2026-04-26 08:29 60.30662 24.98575 155 ft 12 kts 92°
2026-04-26 08:30 60.30697 24.98742 156 ft 13 kts 58°
2026-04-26 08:30 60.30750 24.98787 157 ft 8 kts 337°
2026-04-26 08:30 60.30757 24.98779 157 ft 0 kts 332°
2026-04-26 08:32 60.30782 24.98752 157 ft 19 kts 333°
2026-04-26 08:33 60.31092 24.98435 158 ft 78 kts 333°
2026-04-26 08:33 60.31719 24.97785 153 ft 123 kts 334°
2026-04-26 08:33 60.32543 24.96952 527 ft 127 kts 334°
2026-04-26 08:33 60.33310 24.96144 1033 ft 121 kts 334°
2026-04-26 08:34 60.34055 24.95312 1290 ft 124 kts 335°
2026-04-26 08:34 60.34834 24.94454 1650 ft 134 kts 336°
2026-04-26 08:34 60.35706 24.93605 1966 ft 143 kts 337°
2026-04-26 08:34 60.36604 24.92706 2473 ft 146 kts 336°
2026-04-26 08:35 60.37520 24.91763 2970 ft 150 kts 336°
2026-04-26 08:35 60.38467 24.90789 3324 ft 158 kts 336°
2026-04-26 08:35 60.39486 24.89749 3583 ft 169 kts 336°
2026-04-26 08:35 60.40547 24.88651 3968 ft 173 kts 336°
2026-04-26 08:36 60.41629 24.87535 4373 ft 177 kts 336°
2026-04-26 08:36 60.42791 24.86528 4606 ft 193 kts 348°
2026-04-26 08:36 60.44199 24.86318 4760 ft 212 kts 356°
2026-04-26 08:36 60.45720 24.86143 5072 ft 223 kts 355°
2026-04-26 08:37 60.47288 24.85961 5568 ft 227 kts 356°
2026-04-26 08:37 60.48870 24.85787 6089 ft 229 kts 356°
2026-04-26 08:37 60.50460 24.85610 6630 ft 229 kts 356°
2026-04-26 08:37 60.52054 24.85441 7116 ft 230 kts 356°
2026-04-26 08:38 60.53657 24.85274 7586 ft 232 kts 356°
2026-04-26 08:38 60.55276 24.85104 8042 ft 234 kts 356°
2026-04-26 08:38 60.56910 24.84939 8468 ft 237 kts 356°
2026-04-26 08:38 60.58560 24.84768 8952 ft 238 kts 357°
2026-04-26 08:39 60.60223 24.84601 9418 ft 241 kts 357°
2026-04-26 08:39 60.61889 24.84430 9761 ft 249 kts 357°
2026-04-26 08:39 60.63658 24.84255 9906 ft 262 kts 357°
2026-04-26 08:39 60.65501 24.84074 10148 ft 270 kts 357°
2026-04-26 08:40 60.67393 24.83889 10452 ft 276 kts 357°
2026-04-26 08:40 60.69300 24.83697 10933 ft 275 kts 357°
2026-04-26 08:40 60.71230 24.83508 11367 ft 275 kts 357°
2026-04-26 08:40 60.73162 24.83317 11615 ft 283 kts 357°
2026-04-26 08:41 60.75143 24.83121 12056 ft 283 kts 357°
2026-04-26 08:41 60.77142 24.82926 12382 ft 287 kts 357°
2026-04-26 08:41 60.79137 24.82734 12922 ft 287 kts 357°
2026-04-26 08:41 60.81175 24.82540 13095 ft 293 kts 357°
2026-04-26 08:42 60.83199 24.82641 13526 ft 292 kts
2026-04-26 08:42 60.85206 24.83129 13940 ft 288 kts
2026-04-26 08:42 60.87200 24.83620 14368 ft 289 kts
2026-04-26 08:42 60.89185 24.84102 14817 ft 287 kts
2026-04-26 08:43 60.91210 24.84596 14986 ft 296 kts
2026-04-26 08:43 60.93287 24.85100 15265 ft 303 kts
2026-04-26 08:43 60.95421 24.85616 15421 ft 314 kts
2026-04-26 08:43 60.97602 24.86148 15681 ft 319 kts
2026-04-26 08:44 60.99810 24.86683 16030 ft 322 kts
2026-04-26 08:44 61.02056 24.87225 16313 ft 326 kts
2026-04-26 08:44 61.04335 24.87781 16561 ft 332 kts
2026-04-26 08:44 61.06640 24.88342 16856 ft 336 kts
2026-04-26 08:45 61.08974 24.88911 17196 ft 340 kts
2026-04-26 08:45 61.11339 24.89487 17478 ft 344 kts
2026-04-26 08:45 61.13729 24.90071 17778 ft 349 kts
2026-04-26 08:45 61.16159 24.90669 18057 ft 353 kts
2026-04-26 08:46 61.18608 24.91270 18361 ft 355 kts
2026-04-26 08:46 61.21060 24.91876 18747 ft 355 kts
2026-04-26 08:46 61.23512 24.92477 19105 ft 356 kts
2026-04-26 08:46 61.25941 24.93050 19461 ft 357 kts
2026-04-26 08:47 61.28440 24.93639 19846 ft 357 kts
2026-04-26 08:47 61.30912 24.94229 20217 ft 358 kts
2026-04-26 08:47 61.33393 24.94820 20585 ft 359 kts
2026-04-26 08:47 61.35880 24.95415 20950 ft 360 kts
2026-04-26 08:48 61.38375 24.96013 21305 ft 361 kts
2026-04-26 08:48 61.40879 24.96613 21640 ft 363 kts
2026-04-26 08:48 61.43387 24.97216 22004 ft 364 kts
2026-04-26 08:48 61.45911 24.97825 22220 ft 368 kts
2026-04-26 08:49 61.48462 24.98439 22496 ft 371 kts
2026-04-26 08:49 61.51004 24.99054 22815 ft 373 kts
2026-04-26 08:49 61.53590 24.99679 23126 ft 375 kts
2026-04-26 08:49 61.56186 25.00309 23425 ft 376 kts
2026-04-26 08:50 61.58787 25.00939 23692 ft 377 kts
2026-04-26 08:50 61.61389 25.01573 24016 ft 376 kts
2026-04-26 08:50 61.64027 25.01960 24022 ft 385 kts
2026-04-26 08:50 61.66729 25.02145 24033 ft 392 kts
2026-04-26 08:51 61.72266 25.02621 24219 ft 402 kts
2026-04-26 08:51 61.75060 25.02871 24442 ft 402 kts
2026-04-26 08:51 61.77862 25.03126 24581 ft 406 kts
2026-04-26 08:52 61.80696 25.03387 24756 ft 408 kts
2026-04-26 08:52 61.83527 25.03654 25047 ft 406 kts
2026-04-26 08:52 61.86284 25.03920 25728 ft 396 kts
2026-04-26 08:52 61.89039 25.04177 26094 ft 395 kts
2026-04-26 08:53 61.91803 25.04438 26218 ft 398 kts
2026-04-26 08:53 61.94563 25.04702 26545 ft 398 kts
2026-04-26 08:53 61.97317 25.04962 26812 ft 399 kts
2026-04-26 08:53 62.00094 25.05222 27022 ft 402 kts
2026-04-26 08:54 62.02889 25.05489 27312 ft 402 kts
2026-04-26 08:54 62.05696 25.05760 27515 ft 405 kts
2026-04-26 08:54 62.08510 25.06028 27801 ft 405 kts
2026-04-26 08:54 62.11347 25.06300 27872 ft 412 kts
2026-04-26 08:55 62.14206 25.06578 28180 ft 413 kts
2026-04-26 08:55 62.17035 25.06850 28428 ft 414 kts
2026-04-26 08:55 62.19921 25.07127 28721 ft 416 kts
2026-04-26 08:55 62.22830 25.07406 28870 ft 419 kts
2026-04-26 08:56 62.25726 25.07685 29330 ft 416 kts
2026-04-26 08:56 62.27680 25.07874 29659 ft 416 kts
2026-04-26 08:56 62.31507 25.08242 30032 ft 417 kts
2026-04-26 08:56 62.34390 25.08519 30432 ft 414 kts
2026-04-26 08:57 62.37269 25.08797 30731 ft 412 kts
2026-04-26 08:57 62.40093 25.09069 31075 ft 403 kts
2026-04-26 08:57 62.42890 25.09339 31424 ft 401 kts
2026-04-26 08:57 62.45663 25.09606 31801 ft 398 kts
2026-04-26 08:58 62.48416 25.09873 32188 ft 394 kts
2026-04-26 08:58 62.51145 25.10135 32560 ft 390 kts
2026-04-26 08:58 62.53849 25.10397 32938 ft 387 kts
2026-04-26 08:58 62.56528 25.10656 33331 ft 384 kts
2026-04-26 08:59 62.59180 25.10912 33733 ft 379 kts
2026-04-26 08:59 62.61803 25.11160 34051 ft 375 kts
2026-04-26 08:59 62.63522 25.11328 34255 ft 372 kts
2026-04-26 08:59 62.66096 25.11579 34589 ft 368 kts
2026-04-26 09:00 62.68633 25.11825 34942 ft 362 kts
2026-04-26 09:00 62.71137 25.12069 35275 ft 357 kts
2026-04-26 09:00 62.73599 25.12307 35635 ft 351 kts
2026-04-26 09:00 62.76016 25.12542 35998 ft 345 kts
2026-04-26 09:01 62.78388 25.12774 36340 ft 337 kts
2026-04-26 09:01 62.80709 25.13008 36680 ft 330 kts
2026-04-26 09:01 62.82972 25.13240 37009 ft 322 kts
2026-04-26 09:01 62.85173 25.13467 37335 ft 312 kts
2026-04-26 09:02 62.87305 25.13687 37648 ft 302 kts
2026-04-26 09:02 62.89379 25.13901 37763 ft 298 kts
2026-04-26 09:02 62.91444 25.14106 37755 ft 294 kts
2026-04-26 09:02 62.93476 25.14309 37742 ft 292 kts
2026-04-26 09:03 62.95494 25.14511 37751 ft 287 kts
2026-04-26 09:03 62.97477 25.14713 37725 ft 285 kts
2026-04-26 09:03 62.99445 25.14911 37742 ft 280 kts
2026-04-26 09:03 63.01390 25.15106 37647 ft 279 kts
2026-04-26 09:04 63.03314 25.15296 37644 ft 274 kts
2026-04-26 09:04 63.05202 25.15490 37603 ft 270 kts
2026-04-26 09:04 63.07078 25.15680 37477 ft 270 kts
2026-04-26 09:04 63.08969 25.15866 37273 ft 273 kts
2026-04-26 09:05 63.10895 25.16054 36993 ft 280 kts
2026-04-26 09:05 63.12844 25.16246 36928 ft 281 kts
2026-04-26 09:05 63.14779 25.16445 36982 ft 277 kts
2026-04-26 09:05 63.16692 25.16637 36859 ft 281 kts
2026-04-26 09:06 63.18642 25.16781 36861 ft 277 kts
2026-04-26 09:06 63.20543 25.16922 36972 ft 272 kts
2026-04-26 09:06 63.22443 25.17067 36853 ft 274 kts 360°
2026-04-26 09:06 63.24308 25.17188 36812 ft 265 kts
2026-04-26 09:07 63.26177 25.17359 36687 ft 266 kts
2026-04-26 09:07 63.27998 25.17615 36563 ft 264 kts
2026-04-26 09:07 63.29860 25.17868 36205 ft 276 kts
2026-04-26 09:07 63.31841 25.18118 35719 ft 293 kts
2026-04-26 09:08 63.33920 25.18378 35452 ft 305 kts
2026-04-26 09:08 63.36075 25.18626 35240 ft 314 kts
2026-04-26 09:08 63.38283 25.18872 34958 ft 322 kts
2026-04-26 09:08 63.40513 25.19114 34849 ft 314 kts
2026-04-26 09:09 63.42685 25.19366 34880 ft 314 kts
2026-04-26 09:09 63.47140 25.19882 34930 ft 328 kts
2026-04-26 09:09 63.49467 25.20152 34749 ft 342 kts
2026-04-26 09:10 63.51870 25.20432 34777 ft 349 kts
2026-04-26 09:10 63.56855 25.21014 34719 ft 368 kts
2026-04-26 09:11 63.62075 25.21628 34725 ft 384 kts
2026-04-26 09:11 63.67524 25.22269 34736 ft 400 kts
2026-04-26 09:12 63.73189 25.22938 34751 ft 415 kts
2026-04-26 09:12 63.79057 25.23634 34727 ft 428 kts
2026-04-26 09:13 63.85050 25.24349 34744 ft 433 kts
2026-04-26 09:13 63.91095 25.25073 34742 ft 436 kts
2026-04-26 09:14 63.97114 25.25796 34734 ft 436 kts
2026-04-26 09:14 64.03176 25.26527 34751 ft 436 kts
2026-04-26 09:15 64.09248 25.27261 34728 ft 438 kts
2026-04-26 09:15 64.15331 25.28000 34736 ft 437 kts
2026-04-26 09:16 64.21394 25.28742 34741 ft 434 kts
2026-04-26 09:16 64.27429 25.29482 34746 ft 434 kts
2026-04-26 09:17 64.33465 25.30226 34752 ft 435 kts
2026-04-26 09:17 64.39508 25.30974 34781 ft 435 kts
2026-04-26 09:18 64.45571 25.31728 34762 ft 436 kts
2026-04-26 09:18 64.51626 25.32484 34764 ft 436 kts
2026-04-26 09:19 64.57688 25.33243 34763 ft 436 kts
2026-04-26 09:19 64.63746 25.34007 34761 ft 436 kts
2026-04-26 09:20 64.69763 25.34768 34766 ft 436 kts
2026-04-26 09:20 64.75875 25.35542 34765 ft 439 kts
2026-04-26 09:21 64.81974 25.36323 34752 ft 439 kts
2026-04-26 09:21 64.88029 25.37099 34752 ft 439 kts
2026-04-26 09:22 64.94127 25.37885 34761 ft 438 kts
2026-04-26 09:22 65.00227 25.38675 34773 ft 439 kts
2026-04-26 09:23 65.06289 25.39463 34784 ft 435 kts
2026-04-26 09:23 65.12367 25.40257 34780 ft 439 kts
2026-04-26 09:24 65.18455 25.41056 34792 ft 438 kts
2026-04-26 09:24 65.24542 25.41857 34797 ft 438 kts
2026-04-26 09:25 65.30628 25.42664 34794 ft 438 kts
2026-04-26 09:25 65.36712 25.43473 34795 ft 438 kts
2026-04-26 09:26 65.42803 25.44287 34782 ft 441 kts
2026-04-26 09:26 65.48931 25.45110 34794 ft 441 kts
2026-04-26 09:27 65.55050 25.45936 34790 ft 441 kts
2026-04-26 09:27 65.61174 25.46766 34789 ft 441 kts
2026-04-26 09:28 65.67297 25.47600 34800 ft 441 kts
2026-04-26 09:28 65.73416 25.48437 34798 ft 441 kts
2026-04-26 09:29 65.79536 25.49279 34795 ft 441 kts
2026-04-26 09:29 65.85658 25.50125 34796 ft 440 kts
2026-04-26 09:30 65.91778 25.50974 34798 ft 440 kts
2026-04-26 09:30 65.97900 25.51828 34808 ft 441 kts
2026-04-26 09:31 66.04021 25.52686 34808 ft 441 kts
2026-04-26 09:31 66.10077 25.54889 34835 ft 444 kts 15°
2026-04-26 09:32 66.15965 25.59170 34805 ft 444 kts 15°
2026-04-26 09:32 66.21895 25.63445 34806 ft 444 kts 15°
2026-04-26 09:33 66.27819 25.67719 34795 ft 443 kts 15°
2026-04-26 09:33 66.33746 25.72008 34789 ft 443 kts 15°
2026-04-26 09:34 66.39670 25.76312 34782 ft 444 kts 15°
2026-04-26 09:34 66.45605 25.80640 34771 ft 445 kts 15°
2026-04-26 09:35 66.51546 25.84997 34771 ft 444 kts 15°
2026-04-26 09:35 66.57481 25.89370 34774 ft 445 kts 15°
2026-04-26 09:36 66.63416 25.93765 34775 ft 445 kts 15°
2026-04-26 09:36 66.69351 25.98181 34783 ft 445 kts 15°
2026-04-26 09:37 66.75296 26.02623 34793 ft 446 kts 15°
2026-04-26 09:37 66.81248 26.07097 34819 ft 447 kts 15°
2026-04-26 09:38 66.87195 26.11587 34826 ft 446 kts 15°
2026-04-26 09:38 66.93104 26.16072 34613 ft 445 kts 15°
2026-04-26 09:38 66.96049 26.18313 34295 ft 437 kts 15°
2026-04-26 09:39 66.98951 26.20529 33764 ft 436 kts 15°
2026-04-26 09:39 67.01855 26.22744 33173 ft 432 kts 15°
2026-04-26 09:39 67.04725 26.24938 32575 ft 430 kts 15°
2026-04-26 09:39 67.07586 26.27128 32000 ft 428 kts 15°
2026-04-26 09:40 67.10433 26.29316 31418 ft 427 kts 15°
2026-04-26 09:40 67.13274 26.31502 30864 ft 426 kts 15°
2026-04-26 09:40 67.16117 26.33693 30288 ft 427 kts 15°
2026-04-26 09:40 67.18960 26.35884 29675 ft 426 kts 15°
2026-04-26 09:41 67.21786 26.38077 29167 ft 422 kts 15°
2026-04-26 09:41 67.24591 26.40260 28578 ft 422 kts 15°
2026-04-26 09:41 67.27388 26.42430 28049 ft 418 kts 15°
2026-04-26 09:41 67.30154 26.44586 27490 ft 413 kts 16°
2026-04-26 09:42 67.32886 26.46718 26944 ft 408 kts 16°
2026-04-26 09:42 67.35583 26.48834 26406 ft 403 kts 16°
2026-04-26 09:42 67.38254 26.50933 25870 ft 399 kts 16°
2026-04-26 09:42 67.40900 26.53004 25341 ft 395 kts 16°
2026-04-26 09:43 67.43513 26.55061 24823 ft 390 kts 16°
2026-04-26 09:43 67.46098 26.57104 24306 ft 386 kts 16°
2026-04-26 09:43 67.48651 26.59118 23799 ft 381 kts 16°
2026-04-26 09:43 67.51178 26.61117 23248 ft 377 kts 17°
2026-04-26 09:44 67.53669 26.63090 22786 ft 372 kts 17°
2026-04-26 09:44 67.56138 26.65052 22287 ft 370 kts 17°
2026-04-26 09:44 67.58593 26.67004 21803 ft 368 kts 17°
2026-04-26 09:44 67.61038 26.68954 21316 ft 366 kts 17°
2026-04-26 09:45 67.63468 26.70897 20827 ft 364 kts 17°
2026-04-26 09:45 67.65883 26.72826 20343 ft 362 kts 17°
2026-04-26 09:45 67.68278 26.74759 19874 ft 359 kts 16°
2026-04-26 09:45 67.70662 26.76680 19377 ft 357 kts 16°
2026-04-26 09:46 67.73035 26.78589 18909 ft 355 kts 16°
2026-04-26 09:46 67.75390 26.80486 18446 ft 353 kts 16°
2026-04-26 09:46 67.77728 26.82374 17953 ft 350 kts 16°
2026-04-26 09:46 67.80013 26.84218 17511 ft 347 kts 16°
2026-04-26 09:47 67.82322 26.86092 17051 ft 346 kts 17°
2026-04-26 09:47 67.84615 26.87961 16597 ft 343 kts 16°
2026-04-26 09:47 67.86895 26.89815 16145 ft 342 kts 16°
2026-04-26 09:47 67.89167 26.91668 15680 ft 342 kts 16°
2026-04-26 09:48 67.91431 26.93518 15234 ft 339 kts 16°
2026-04-26 09:48 67.93673 26.95366 14781 ft 337 kts 17°
2026-04-26 09:48 67.95907 26.97201 14331 ft 332 kts 16°
2026-04-26 09:48 67.98082 26.98993 13887 ft 322 kts 16°
2026-04-26 09:49 68.00197 27.00727 13455 ft 313 kts 15°
2026-04-26 09:49 68.02247 27.02422 13040 ft 304 kts 15°
2026-04-26 09:49 68.04240 27.04066 12651 ft 296 kts 15°
2026-04-26 09:49 68.06186 27.05674 12267 ft 289 kts 16°
2026-04-26 09:50 68.07474 27.06754 11995 ft 285 kts 15°
2026-04-26 09:50 68.09350 27.08316 11621 ft 280 kts 15°
2026-04-26 09:50 68.11204 27.09870 11253 ft 278 kts 15°
2026-04-26 09:50 68.13022 27.11386 10894 ft 277 kts 14°
2026-04-26 09:51 68.14857 27.12916 10522 ft 276 kts 15°
2026-04-26 09:51 68.16682 27.14446 10157 ft 275 kts 16°
2026-04-26 09:51 68.18508 27.15979 9801 ft 274 kts 16°
2026-04-26 09:51 68.20331 27.17516 9417 ft 274 kts 15°
2026-04-26 09:52 68.22141 27.19027 9075 ft 272 kts 15°
2026-04-26 09:52 68.25818 27.19812 8357 ft 265 kts 353°
2026-04-26 09:52 68.27635 27.19261 7996 ft 261 kts 353°
2026-04-26 09:53 68.29423 27.18773 7636 ft 256 kts 353°
2026-04-26 09:53 68.31186 27.18294 7314 ft 253 kts 353°
2026-04-26 09:53 68.32921 27.17824 6986 ft 249 kts 352°
2026-04-26 09:53 68.34609 27.17362 6882 ft 236 kts 353°
2026-04-26 09:54 68.36231 27.16926 6574 ft 234 kts 353°
2026-04-26 09:54 68.37844 27.16495 6266 ft 232 kts 353°
2026-04-26 09:54 68.39440 27.16067 5956 ft 229 kts 353°
2026-04-26 09:54 68.40908 27.14887 6041 ft 207 kts 328°
2026-04-26 09:55 68.41927 27.12531 6779 ft 193 kts 316°
2026-04-26 09:55 68.42948 27.09824 6403 ft 213 kts 318°
2026-04-26 09:55 68.44112 27.07007 5582 ft 234 kts 320°
2026-04-26 09:55 68.45431 27.04182 4754 ft 249 kts 334°
2026-04-26 09:56 68.47134 27.03347 4090 ft 252 kts
2026-04-26 09:56 68.48677 27.05260 3744 ft 243 kts 37°
2026-04-26 09:56 68.49818 27.08470 3421 ft 225 kts 46°
2026-04-26 09:56 68.50747 27.11492 3391 ft 189 kts 46°
2026-04-26 09:57 68.51536 27.14101 3279 ft 170 kts 45°
2026-04-26 09:57 68.52318 27.16388 3040 ft 160 kts 39°
2026-04-26 09:57 68.53117 27.18448 2698 ft 157 kts 40°
2026-04-26 09:57 68.53878 27.20532 2368 ft 152 kts 39°
2026-04-26 09:58 68.54608 27.22613 2054 ft 150 kts 41°
2026-04-26 09:58 68.55307 27.24633 1841 ft 144 kts 42°
2026-04-26 09:58 68.55987 27.26615 1623 ft 142 kts 43°
2026-04-26 09:58 68.56651 27.28536 1432 ft 140 kts 44°
2026-04-26 09:59 68.57320 27.30485 1273 ft 141 kts 44°
2026-04-26 09:59 68.57975 27.32445 1087 ft 138 kts 44°
2026-04-26 09:59 68.58634 27.34358 934 ft 139 kts 43°
2026-04-26 09:59 68.59293 27.36291 734 ft 140 kts 44°
2026-04-26 10:00 68.59955 27.38232 520 ft 138 kts 44°
2026-04-26 10:00 68.60557 27.40027 475 ft 110 kts 46°
2026-04-26 10:00 68.60954 27.41194 472 ft 54 kts 49°
2026-04-26 10:00 68.61026 27.41533 474 ft 11 kts 143°
2026-04-26 10:01 68.60965 27.41677 475 ft 13 kts 136°
2026-04-26 10:01 68.60922 27.41756 472 ft 5 kts 179°
2026-04-26 10:01 68.60888 27.41681 473 ft 7 kts 228°
2026-04-26 10:01 68.60867 27.41617 474 ft 3 kts 229°
2026-04-26 10:02 68.60848 27.41559 475 ft 5 kts 226°
2026-04-26 10:02 68.60828 27.41573 474 ft 3 kts 132°
2026-04-26 10:02 68.60825 27.41634 475 ft 5 kts 97°
2026-04-26 10:02 68.60823 27.41676 472 ft 1 kts 95°
2026-04-26 10:03 68.60823 27.41692 469 ft 0 kts 95°